User: anonymous   Login
Location: Epalinges
(46.5518°N, 6.6683°E)
Time: 06:52:35
(UTC+00:00)
Language:

Cosmos 1606 - Orbit

View from above orbital plane
View from above orbital plane
View from above satellite
View from above satellite

Ground track
Ground track

The orbit data is extracted from the following two-line orbital elements,

1 15369U 84111A   21267.37394023  .00001026  00000-0  49720-4 0  9993
2 15369  82.5302  25.8329 0015820 239.5472 120.4199 15.17318605 16902
Epoch (UTC): 24 September 2021 08:58:28
Eccentricity: 0.0015820
inclination: 82.5302°
perigee height: 503 km
apogee height: 525 km
right ascension of ascending node: 25.8329°
argument of perigee: 239.5472°
revolutions per day: 15.17318605
mean anomaly at epoch: 120.4199°
orbit number at epoch: 1690

The dashed part of the orbit path shows where the satellite is in the earth's shadow,  

DLR